Rolla, ND

4:10 AM CDT on May 27, 2018 (GMT -0500)
Rolla

Weather History for K06D - December, 2012

Change the Weather History Date:

Sunday, December 23, 2012

  Actual Average (KRUG) Record (KRUG)
Temperature  
Mean Temperature -2 °F -  
Max Temperature 0 °F 16 °F 43 °F (1954)
Min Temperature -5 °F -1 °F -38 °F (1983)
Degree Days  
Heating Degree Days 68    
Moisture  
Dew Point -6 °F    
Average Humidity 85    
Maximum Humidity 92    
Minimum Humidity 78    
Precipitation  
Precipitation 0.03 in - - ()
Sea Level Pressure  
Sea Level Pressure 30.16 in    
Wind  
Wind Speed 12 mph (North)    
Max Wind Speed 15 mph    
Max Gust Speed -    
Visibility 9 miles    
Events Rain , Snow    
Averages and records for this station are not official NWS values.
T = Trace of Precipitation, MM = Missing Value Source: NWS Daily Summary

Daily Weather History Graph

Daily Weather History Graph

Search for Another Location

Airport or City:

Astronomy

Dec. 23, 2012 Rise Set
Actual Time 8:30 AM CST 4:45 PM CST
Civil Twilight 7:53 AM CST 5:22 PM CST
Nautical Twilight 7:12 AM CST 6:03 PM CST
Astronomical Twilight 6:34 AM CST 6:41 PM CST
Moon 1:46 PM CST (12/23) 4:03 AM CST (12/23)
Length of Visible Light 9h 29m
Length of Day
8h 14m
Waxing Gibbous, 82% of the Moon is Illuminated
Dec 23
Waxing Gibbous
Dec 28
Full
Jan 4
Last Quarter
Jan 11
New
Jan 18
First Quarter

Hourly Weather History & Observations

Time (CST) Temp. Windchill Dew Point Humidity Pressure Visibility Wind Dir Wind Speed Gust Speed Precip Events Conditions
12:15 AM -4.0 °F -22.1 °F -9.4 °F 78% 30.19 in 10.0 mi North 11.5 mph - N/A   Clear
12:35 AM -4.0 °F -22.1 °F -9.4 °F 78% 30.20 in 10.0 mi North 11.5 mph - N/A   Clear
12:55 AM -4.0 °F -22.1 °F -9.4 °F 78% 30.20 in 10.0 mi North 11.5 mph - N/A   Clear
1:15 AM -5.8 °F -23.4 °F -9.4 °F 84% 30.19 in 10.0 mi North 10.4 mph - N/A   Clear
1:35 AM -4.0 °F -22.1 °F -9.4 °F 78% 30.18 in 10.0 mi North 11.5 mph - N/A   Clear
1:55 AM -4.0 °F -23.7 °F -9.4 °F 78% 30.17 in 10.0 mi North 13.8 mph - N/A   Clear
2:15 AM -4.0 °F -22.1 °F -9.4 °F 78% 30.18 in 10.0 mi North 11.5 mph - N/A   Clear
2:35 AM -4.0 °F -22.1 °F -9.4 °F 78% 30.18 in 10.0 mi North 11.5 mph - N/A   Clear
2:55 AM -4.0 °F -23.7 °F -9.4 °F 78% 30.18 in 10.0 mi North 13.8 mph - N/A   Clear
3:15 AM -4.0 °F -23.0 °F -9.4 °F 78% 30.18 in 10.0 mi North 12.7 mph - N/A   Mostly Cloudy
3:35 AM -4.0 °F -24.5 °F -9.4 °F 78% 30.17 in 10.0 mi North 15.0 mph - N/A   Scattered Clouds
3:55 AM -5.8 °F -25.2 °F -9.4 °F 84% 30.17 in 10.0 mi North 12.7 mph - N/A   Clear
4:15 AM -5.8 °F -26.0 °F -9.4 °F 84% 30.16 in 10.0 mi North 13.8 mph - N/A   Clear
4:35 AM -5.8 °F -23.4 °F -9.4 °F 84% 30.16 in 10.0 mi North 10.4 mph - N/A   Clear
4:55 AM -5.8 °F -22.4 °F -9.4 °F 84% 30.16 in 10.0 mi NNE 9.2 mph - N/A   Clear
5:15 AM -4.0 °F -21.2 °F -9.4 °F 78% 30.17 in 10.0 mi North 10.4 mph - N/A   Clear
5:35 AM -4.0 °F -22.1 °F -9.4 °F 78% 30.17 in 10.0 mi NNE 11.5 mph - N/A   Partly Cloudy
5:55 AM -4.0 °F -21.2 °F -9.4 °F 78% 30.16 in 10.0 mi NNE 10.4 mph - N/A   Mostly Cloudy
6:15 AM -4.0 °F -20.2 °F -9.4 °F 78% 30.17 in 10.0 mi North 9.2 mph - N/A   Overcast
6:35 AM -4.0 °F -17.8 °F -7.6 °F 85% 30.17 in 10.0 mi North 6.9 mph - N/A   Overcast
6:55 AM -4.0 °F -16.3 °F -7.6 °F 85% 30.17 in 10.0 mi North 5.8 mph - N/A   Overcast
7:15 AM -4.0 °F -17.8 °F -7.6 °F 85% 30.17 in 10.0 mi North 6.9 mph - N/A   Overcast
7:35 AM -4.0 °F -20.2 °F -7.6 °F 85% 30.17 in 10.0 mi North 9.2 mph - N/A   Overcast
7:55 AM -4.0 °F -19.0 °F -7.6 °F 85% 30.16 in 10.0 mi NNE 8.1 mph - N/A   Overcast
8:15 AM -2.2 °F -19.9 °F -7.6 °F 78% 30.15 in 10.0 mi NNE 11.5 mph - N/A   Overcast
8:35 AM -2.2 °F -19.9 °F -7.6 °F 78% 30.15 in 10.0 mi NNE 11.5 mph - N/A   Overcast
8:55 AM -2.2 °F -21.5 °F -5.8 °F 85% 30.16 in 1.2 mi NNE 13.8 mph - N/A   Overcast
9:15 AM -2.2 °F -21.5 °F -5.8 °F 85% 30.16 in 2.5 mi NNE 13.8 mph - N/A   Overcast
9:35 AM -2.2 °F -18.9 °F -4.0 °F 92% 30.17 in 10.0 mi NE 10.4 mph - N/A   Overcast
9:55 AM -2.2 °F -21.5 °F -4.0 °F 92% 30.17 in 5.0 mi NNE 13.8 mph - N/A   Overcast
10:15 AM -2.2 °F -20.7 °F -4.0 °F 92% 30.17 in 10.0 mi NE 12.7 mph - N/A   Overcast
10:35 AM -2.2 °F -21.5 °F -4.0 °F 92% 30.18 in 8.0 mi NE 13.8 mph - N/A   Overcast
11:15 AM -2.2 °F -19.9 °F -5.8 °F 85% 30.18 in 10.0 mi North 11.5 mph - N/A   Overcast
11:35 AM -2.2 °F -20.7 °F -5.8 °F 85% 30.17 in 10.0 mi NNE 12.7 mph - N/A   Overcast
11:55 AM -2.2 °F -20.7 °F -5.8 °F 85% 30.17 in 10.0 mi NNE 12.7 mph - N/A   Overcast
12:15 PM -2.2 °F -19.9 °F -4.0 °F 92% 30.17 in 10.0 mi NNE 11.5 mph - N/A   Mostly Cloudy
12:35 PM -2.2 °F -16.8 °F -4.0 °F 92% 30.18 in 9.0 mi NNE 8.1 mph - N/A   Overcast
12:55 PM -2.2 °F -16.8 °F -4.0 °F 92% 30.17 in 10.0 mi North 8.1 mph - N/A Rain Light Freezing Rain
1:15 PM -2.2 °F -19.9 °F -4.0 °F 92% 30.16 in 10.0 mi North 11.5 mph - N/A   Overcast
1:35 PM -2.2 °F -19.9 °F -4.0 °F 92% 30.15 in 10.0 mi North 11.5 mph - N/A   Overcast
1:55 PM -0.4 °F -17.6 °F -4.0 °F 85% 30.15 in 10.0 mi North 11.5 mph - N/A   Overcast
2:15 PM -2.2 °F -19.9 °F -4.0 °F 92% 30.14 in 10.0 mi North 11.5 mph - N/A   Mostly Cloudy
2:35 PM -2.2 °F -19.9 °F -4.0 °F 92% 30.14 in 10.0 mi North 11.5 mph - N/A   Overcast
2:55 PM -2.2 °F -18.9 °F -4.0 °F 92% 30.15 in 10.0 mi North 10.4 mph - N/A   Overcast
3:15 PM -0.4 °F -18.4 °F -4.0 °F 85% 30.15 in 10.0 mi North 12.7 mph - N/A   Overcast
3:35 PM -0.4 °F -18.4 °F -4.0 °F 85% 30.15 in 10.0 mi North 12.7 mph - N/A   Overcast
3:55 PM -0.4 °F -17.6 °F -4.0 °F 85% 30.16 in 10.0 mi North 11.5 mph - N/A   Overcast
4:15 PM -0.4 °F -18.4 °F -4.0 °F 85% 30.16 in 10.0 mi North 12.7 mph - N/A   Overcast
4:35 PM -2.2 °F -19.9 °F -4.0 °F 92% 30.16 in 10.0 mi North 11.5 mph - N/A   Overcast
4:55 PM -2.2 °F -20.7 °F -4.0 °F 92% 30.16 in 10.0 mi North 12.7 mph - N/A   Overcast
5:15 PM -2.2 °F -20.7 °F -4.0 °F 92% 30.15 in 10.0 mi North 12.7 mph - N/A Snow Light Snow
5:35 PM -2.2 °F -19.9 °F -4.0 °F 92% 30.15 in 10.0 mi North 11.5 mph - N/A   Overcast
5:55 PM -2.2 °F -19.9 °F -4.0 °F 92% 30.15 in 10.0 mi North 11.5 mph - N/A Snow Light Snow
6:15 PM -0.4 °F -18.4 °F -4.0 °F 85% 30.15 in 5.0 mi North 12.7 mph - N/A Snow Light Snow
6:35 PM -0.4 °F -18.4 °F -4.0 °F 85% 30.15 in 5.0 mi North 12.7 mph - 0.02 in Snow Light Snow
6:55 PM -0.4 °F -16.7 °F -4.0 °F 85% 30.15 in 10.0 mi North 10.4 mph - 0.02 in Rain Light Freezing Rain
7:15 PM -0.4 °F -19.9 °F -4.0 °F 85% 30.15 in 5.0 mi North 15.0 mph - N/A Snow Light Snow
7:35 PM -0.4 °F -18.4 °F -4.0 °F 85% 30.15 in 8.0 mi North 12.7 mph - 0.01 in Snow Light Snow
7:55 PM -0.4 °F -18.4 °F -4.0 °F 85% 30.15 in 10.0 mi North 12.7 mph - 0.01 in   Overcast
8:15 PM -0.4 °F -19.9 °F -4.0 °F 85% 30.14 in 10.0 mi North 15.0 mph - N/A   Overcast
8:55 PM -0.4 °F -19.2 °F -4.0 °F 85% 30.15 in 10.0 mi North 13.8 mph - N/A   Overcast
9:15 PM -0.4 °F -19.9 °F -4.0 °F 85% 30.15 in 10.0 mi North 15.0 mph - N/A   Overcast
9:35 PM -0.4 °F -19.9 °F -4.0 °F 85% 30.15 in 10.0 mi North 15.0 mph - N/A   Overcast
9:55 PM -0.4 °F -19.2 °F -4.0 °F 85% 30.15 in 10.0 mi NNW 13.8 mph - N/A   Overcast
10:15 PM -2.2 °F -22.2 °F -4.0 °F 92% 30.15 in 10.0 mi North 15.0 mph - N/A   Overcast
10:35 PM -2.2 °F -22.2 °F -5.8 °F 85% 30.15 in 10.0 mi North 15.0 mph - N/A   Overcast
10:55 PM -2.2 °F - -7.6 °F 78% 30.15 in 10.0 mi North - - N/A   Overcast
11:15 PM -2.2 °F -19.9 °F -7.6 °F 78% 30.15 in 10.0 mi North 11.5 mph - N/A   Overcast
11:35 PM -4.0 °F -23.0 °F -7.6 °F 85% 30.15 in 10.0 mi North 12.7 mph - N/A   Overcast
11:55 PM -4.0 °F -22.1 °F -9.4 °F 78% 30.16 in 10.0 mi North 11.5 mph - N/A   Overcast